Forecast Directory
U.S. Alerts
El Dorado Weather Logo
U.S. Radar Loop Conditions Map

U.S. Color Satellite North America Color Infrared Animated Satellite Loop

Interactive Wx Map Live U.S. Google Map Radar Thumbnail Image

US Precipitation 1 day, 24 hour precipitation map

US Temperatures US Conditions Map

US Climate Data US Conditions Map


NOAA NWS Hourly Roundups by Site
Regional Weather Roundup for Sacramento, CA
Select Site:  

000
ASUS46 KSTO 091515
RWRCA

NORTHERN AND CENTRAL CA REGIONAL WEATHER ROUNDUP
NATIONAL WEATHER SERVICE SACRAMENTO CA
700 AM PST MON DEC 09 2019

NOTE: FAIR INDICATES FEW OR NO CLOUDS BELOW 12,000 FEET WITH NO
SIGNIFICANT WEATHER AND/OR OBSTRUCTIONS TO VISIBILITY.

CAZ001-003-091600-
NORTHWEST AREA

CITY           SKY/WX    TMP DP  RH WIND       PRES   REMARKS
CRESCENT CITY  MOCLDY    42  41  96 E5        30.20S
UKIAH          CLOUDY    48  45  89 NW5       30.18R
$$

CAZ006-505>513-091600-
BAY AREA

CITY           SKY/WX    TMP DP  RH WIND       PRES   REMARKS
SANTA ROSA     CLOUDY    46  46 100 CALM      30.16S FOG
SAN RAFAEL     N/A       MM  MM  MM MISG
NAPA           FOG       44  43  96 CALM      30.17R VSB 1/2
CONCORD        CLEAR     45  41  86 CALM      30.18R FOG
OAKLAND CITY   N/A       49  MM  MM MISG
OAKLAND        FOG       51  49  92 E3        30.19R VSB 1/8
SAN FRAN CITY  N/A       50  MM  98 MISG
SAN FRAN ARPT  FOG       49  49 100 W6        30.18R VSB 1/4
LIVERMORE      FOG       46  46 100 CALM      30.17R VSB 1/4
HAYWARD        FOG       49  49 100 NE5       30.18R VSB 3/4
SAN JOSE ARPT  CLOUDY    52  50  93 SW5       30.18R FOG
$$
CAZ034-037-514>518-091600-
CENTRAL COAST

CITY           SKY/WX    TMP DP  RH WIND       PRES   REMARKS
WATSONVILLE    PTCLDY    47  46  97 N5        30.18R
SALINAS        CLOUDY    50  48  93 SE3       30.17R FOG
MONTEREY       FOG       50  49  96 SE5       30.18S VSB 1/4
SAN LUIS OBISP CLEAR     45  44  97 CALM      30.13R
SANTA MARIA    CLEAR     46  43  89 SW5       30.11R
$$
CAZ015-016-091600-
NORTHERN SACRAMENTO VALLEY

CITY           SKY/WX    TMP DP  RH WIND       PRES   REMARKS
REDDING        CLEAR     39  37  92 NE3       30.13R
RED BLUFF      CLEAR     42  39  89 N3        30.14S
OROVILLE       FOG      N/A N/A N/A S3        30.15R VSB 1
$$
CAZ016>018-091600-
SOUTHERN SACRAMENTO VALLEY

CITY           SKY/WX    TMP DP  RH WIND       PRES   REMARKS
AUBURN         CLEAR     43  39  87 E9        30.13S
BEALE AFB      PTCLDY    41  41  99 CALM      30.13R
LINCOLN        CLOUDY    37  37 100 CALM      30.15R VSB 1/2
MARYSVILLE     FOG       46  46 100 CALM      30.15S VSB 1/2
SAC INTL ARPT  FOG       47  47 100 CALM      30.15R VSB 1/4
MATHER AIRPORT FOG       43  43 100 E5        30.15R VSB 3/4
DOWNTOWN SAC   N/A       48  MM  MM MISG
SAC EXEC ARPT  FOG       47  46  97 CALM      30.16R VSB 1/2
VACAVILLE      CLEAR     44  42  93 E6        30.16R
TRAVIS AFB     CLEAR     45  43  94 S3        30.15R FOG
$$
CAZ019>021-091600-
SAN JOAQUIN VALLEY

CITY           SKY/WX    TMP DP  RH WIND       PRES   REMARKS
STOCKTON       CLEAR     44  42  93 E3        30.16R FOG
MODESTO        FOG       47  46  97 CALM      30.16R VSB 1/4
MERCED         FOG       50  49  96 N6        30.17R VSB 1/2
LEMOORE        FOG       48  48 100 NW3       30.17R VSB 1/8
FRESNO         FOG       46  45  96 CALM      30.17R VSB 1/4
HANFORD        FOG       49  48  97 NE3       30.17R VSB 1/2
PORTERVILLE    FOG       47  47 100 S7        30.18R VSB 1/4
BAKERSFIELD    CLOUDY    49  47  93 E5        30.16R FOG
$$
CAZ011-012-071-091600-
NORTHERN MOUNTAINS

CITY           SKY/WX    TMP DP  RH WIND       PRES   REMARKS
YREKA          CLOUDY    30  29  96 CALM      30.22S
MOUNT SHASTA   CLOUDY    29  27  92 CALM      30.18R
ALTURAS        FOG       28  27  96 CALM      30.19S VSB 1/2
$$
CAZ011-012-071-091600-
SIERRA NEVADA MTNS

CITY           SKY/WX    TMP DP  RH WIND       PRES   REMARKS
BLUE CANYON    MOCLDY    38  22  52 CALM      30.14R
TRUCKEE        FOG       27  27 100 CALM      30.16S VSB 1/4
TAHOE VLY ARPT PTCLDY    20  18  92 S3        30.14S
MAMMOTH LAKES  FAIR      18  15  88 CALM      30.16F
$$


 

View Past Reports for Sacramento, CA.

Products Courtesy of NOAA-NWS
NWS Information Parsing Script by Ken True at Saratoga Weather - Script by SE Lincoln Weather.



Contact Us | Mobile
Never base any life decisions on weather information from this site or anywhere over the Internet.
Site is dedicated to our Lord & Savior Jesus Christ | Random Jesus Quotes

Copyright © 2019 El Dorado Weather, Inc. | Site Designed By:  El Dorado Weather